279  
ASUS43 KGLD 130508  
RWRGLD  
 
GOODLAND FORECAST AREA HOURLY WEATHER ROUNDUP  
NATIONAL WEATHER SERVICE GOODLAND KS  
1100 PM MDT FRI AUG 12 2022  
   
..OFFICIAL OBSERVATIONS
 
 
 
CITY SKY/WX TMP DP RH WIND PRES REMARKS
 
GOODLAND KS CLEAR 73 51 46 S12 30.11R  
HILL CITY KS CLEAR 82 54 37 S8 30.04  
IMPERIAL NEB CLEAR 79 52 38 S14 30.06R  
MCCOOK NEB CLEAR 81 46 29 S13 30.02R  
AKRON CO CLEAR 76 47 35 S10 30.15R  
BURLINGTON CO CLEAR 73 47 39 S10 30.15R  
LIMON CO CLEAR 66 44 45 CALM 30.22R  

 
   
..UNOFFICIAL OBSERVATIONS
 
 
 
CITY SKY/WX TMP DP RH WIND PRES REMARKS
 
COLBY KS CLEAR 80 49 33 S14G20 30.10R  
NORTON KS FAIR 79 52 38 S10 30.06S  
SHARON SPRINGS N/A 72 49 44 S9 N/A  
YUMA CO FAIR 64 28 25 S6 30.12R  

 
 
 
CLICK HERE TO GO TO PREVIOUS BULLETINS.

The Nexlab KS Page
The Nexlab CO Page
The Nexlab NE Page Main Text Page